• In Deutschland
  • Länderverzeichnis
  • Für 7 Tage
  • Wassertemperatur
  • Satellitenkarten
  • Wetterkarte
  • Widgets
  • user-avatar
    Anmelden

    Stündliche Wetter Copiapo

    Heute, 25 November, Samstag

    Zeit Temperatur Niederschläge Wind Luftdruck Luftfeuchtigkeit
    00:00 +22°C° 0 mm 1 m/S 726 mmHg 54%
    01:00 +22°C° 0 mm 1 m/S 725 mmHg 55%
    02:00 +21°C° 0 mm 1 m/S 725 mmHg 55%
    03:00 +19°C° 0 mm 0 m/S 725 mmHg 56%
    04:00 +18°C° 0 mm 0 m/S 725 mmHg 56%
    05:00 +22°C° 0 mm 1 m/S 725 mmHg 50%
    06:00 +24°C° 0 mm 1 m/S 725 mmHg 44%
    07:00 +25°C° 0 mm 1 m/S 725 mmHg 38%
    08:00 +27°C° 0 mm 2 m/S 725 mmHg 34%
    09:00 +28°C° 0 mm 2 m/S 725 mmHg 30%
    10:00 +30°C° 0 mm 3 m/S 725 mmHg 26%
    11:00 +31°C° 0 mm 3 m/S 725 mmHg 26%
    12:00 +32°C° 0 mm 4 m/S 725 mmHg 25%
    13:00 +33°C° 0 mm 4 m/S 725 mmHg 25%
    14:00 +32°C° 0 mm 4 m/S 724 mmHg 26%
    15:00 +32°C° 0 mm 4 m/S 724 mmHg 28%
    16:00 +30°C° 0 mm 3 m/S 724 mmHg 29%
    17:00 +29°C° 0 mm 3 m/S 724 mmHg 33%
    18:00 +27°C° 0 mm 2 m/S 725 mmHg 37%
    19:00 +26°C° 0 mm 2 m/S 725 mmHg 41%
    20:00 +26°C° 0 mm 1 m/S 725 mmHg 42%
    21:00 +25°C° 0 mm 1 m/S 725 mmHg 44%
    22:00 +25°C° 0 mm 1 m/S 725 mmHg 45%
    23:00 +25°C° 0 mm 1 m/S 725 mmHg 46%

    Morgen, 26 November, Sonntag

    Zeit Temperatur Niederschläge Wind Luftdruck Luftfeuchtigkeit
    00:00 +24°C° 0 mm 1 m/S 725 mmHg 48%
    01:00 +21°C° 0 mm 0 m/S 724 mmHg 49%
    02:00 +21°C° 0 mm 0 m/S 724 mmHg 51%
    03:00 +22°C° 0 mm 1 m/S 724 mmHg 53%
    04:00 +22°C° 0 mm 1 m/S 724 mmHg 54%
    05:00 +23°C° 0 mm 1 m/S 725 mmHg 50%
    06:00 +24°C° 0 mm 1 m/S 725 mmHg 47%
    07:00 +25°C° 0 mm 1 m/S 725 mmHg 43%
    08:00 +26°C° 0 mm 2 m/S 725 mmHg 39%
    09:00 +28°C° 0 mm 3 m/S 725 mmHg 35%
    10:00 +29°C° 0 mm 3 m/S 726 mmHg 31%
    11:00 +30°C° 0 mm 3 m/S 725 mmHg 30%
    12:00 +30°C° 0 mm 4 m/S 725 mmHg 29%
    13:00 +32°C° 0 mm 4 m/S 725 mmHg 28%
    14:00 +30°C° 0 mm 4 m/S 724 mmHg 29%
    15:00 +30°C° 0 mm 4 m/S 724 mmHg 30%
    16:00 +30°C° 0 mm 4 m/S 724 mmHg 31%
    17:00 +28°C° 0 mm 3 m/S 724 mmHg 35%
    18:00 +27°C° 0 mm 2 m/S 725 mmHg 39%
    19:00 +26°C° 0 mm 2 m/S 725 mmHg 43%
    20:00 +25°C° 0 mm 1 m/S 725 mmHg 44%
    21:00 +25°C° 0 mm 1 m/S 725 mmHg 46%
    22:00 +25°C° 0 mm 1 m/S 725 mmHg 48%
    23:00 +24°C° 0 mm 1 m/S 725 mmHg 49%

    übermorgen, 27 November, Montag

    Zeit Temperatur Niederschläge Wind Luftdruck Luftfeuchtigkeit
    00:00 +22°C° 0 mm 0 m/S 725 mmHg 50%
    01:00 +21°C° 0 mm 0 m/S 724 mmHg 51%
    02:00 +21°C° 0 mm 0 m/S 724 mmHg 53%
    03:00 +22°C° 0 mm 1 m/S 724 mmHg 55%
    04:00 +22°C° 0 mm 1 m/S 724 mmHg 57%
    05:00 +23°C° 0 mm 1 m/S 724 mmHg 53%
    06:00 +24°C° 0 mm 1 m/S 725 mmHg 48%
    07:00 +25°C° 0 mm 1 m/S 725 mmHg 44%
    08:00 +27°C° 0 mm 2 m/S 725 mmHg 39%
    09:00 +28°C° 0 mm 2 m/S 725 mmHg 34%
    10:00 +30°C° 0 mm 3 m/S 725 mmHg 30%
    11:00 +31°C° 0 mm 3 m/S 724 mmHg 28%
    12:00 +32°C° 0 mm 4 m/S 724 mmHg 26%
    13:00 +33°C° 0 mm 4 m/S 723 mmHg 24%
    14:00 +32°C° 0 mm 4 m/S 723 mmHg 26%
    15:00 +32°C° 0 mm 4 m/S 723 mmHg 28%
    16:00 +30°C° 0 mm 3 m/S 723 mmHg 30%
    17:00 +29°C° 0 mm 3 m/S 723 mmHg 33%
    18:00 +27°C° 0 mm 2 m/S 724 mmHg 36%
    19:00 +26°C° 0 mm 2 m/S 724 mmHg 40%
    20:00 +26°C° 0 mm 1 m/S 724 mmHg 41%
    21:00 +26°C° 0 mm 1 m/S 724 mmHg 42%
    22:00 +25°C° 0 mm 1 m/S 725 mmHg 43%
    23:00 +25°C° 0 mm 1 m/S 724 mmHg 45%

    28 November, Dienstag

    Zeit Temperatur Niederschläge Wind Luftdruck Luftfeuchtigkeit
    00:00 +24°C° 0 mm 1 m/S 724 mmHg 48%
    01:00 +23°C° 0 mm 1 m/S 724 mmHg 50%
    02:00 +23°C° 0 mm 1 m/S 724 mmHg 52%
    03:00 +22°C° 0 mm 1 m/S 724 mmHg 55%
    04:00 +20°C° 0 mm 0 m/S 725 mmHg 57%
    05:00 +23°C° 0 mm 1 m/S 725 mmHg 52%
    06:00 +24°C° 0 mm 1 m/S 725 mmHg 47%
    07:00 +25°C° 0 mm 1 m/S 725 mmHg 42%
    08:00 +27°C° 0 mm 2 m/S 725 mmHg 38%
    09:00 +29°C° 0 mm 2 m/S 725 mmHg 33%
    10:00 +30°C° 0 mm 3 m/S 725 mmHg 28%
    11:00 +31°C° 0 mm 3 m/S 725 mmHg 27%
    12:00 +33°C° 0 mm 4 m/S 725 mmHg 26%
    13:00 +33°C° 0 mm 4 m/S 725 mmHg 25%
    14:00 +33°C° 0 mm 4 m/S 725 mmHg 26%
    15:00 +32°C° 0 mm 4 m/S 725 mmHg 28%
    16:00 +30°C° 0 mm 4 m/S 725 mmHg 30%
    17:00 +29°C° 0 mm 3 m/S 725 mmHg 34%
    18:00 +27°C° 0 mm 2 m/S 725 mmHg 38%
    19:00 +26°C° 0 mm 2 m/S 725 mmHg 42%
    20:00 +25°C° 0 mm 2 m/S 726 mmHg 45%
    21:00 +24°C° 0 mm 1 m/S 726 mmHg 48%
    22:00 +24°C° 0 mm 1 m/S 726 mmHg 51%
    23:00 +23°C° 0 mm 1 m/S 726 mmHg 53%

    29 November, Mittwoch

    Zeit Temperatur Niederschläge Wind Luftdruck Luftfeuchtigkeit
    00:00 +23°C° 0 mm 1 m/S 726 mmHg 56%
    01:00 +22°C° 0 mm 1 m/S 726 mmHg 58%
    02:00 +22°C° 0 mm 1 m/S 726 mmHg 59%
    03:00 +22°C° 0 mm 1 m/S 726 mmHg 59%
    04:00 +20°C° 0 mm 0 m/S 726 mmHg 60%
    05:00 +23°C° 0 mm 1 m/S 727 mmHg 55%
    06:00 +24°C° 0 mm 1 m/S 727 mmHg 50%
    07:00 +25°C° 0 mm 2 m/S 727 mmHg 45%
    08:00 +26°C° 0 mm 2 m/S 727 mmHg 41%
    09:00 +27°C° 0 mm 2 m/S 727 mmHg 36%
    10:00 +29°C° 0 mm 2 m/S 726 mmHg 32%
    11:00 +30°C° 0 mm 3 m/S 726 mmHg 29%
    12:00 +32°C° 0 mm 4 m/S 726 mmHg 27%
    13:00 +32°C° 0 mm 5 m/S 725 mmHg 24%
    14:00 +32°C° 0 mm 5 m/S 725 mmHg 25%
    15:00 +32°C° 0 mm 4 m/S 725 mmHg 26%
    16:00 +30°C° 0 mm 4 m/S 725 mmHg 28%
    17:00 +29°C° 0 mm 3 m/S 725 mmHg 31%
    18:00 +27°C° 0 mm 3 m/S 725 mmHg 34%
    19:00 +26°C° 0 mm 2 m/S 725 mmHg 38%
    20:00 +25°C° 0 mm 2 m/S 725 mmHg 39%
    21:00 +25°C° 0 mm 1 m/S 725 mmHg 40%
    22:00 +25°C° 0 mm 1 m/S 725 mmHg 41%
    23:00 +24°C° 0 mm 1 m/S 725 mmHg 42%

    30 November, Donnerstag

    Zeit Temperatur Niederschläge Wind Luftdruck Luftfeuchtigkeit
    00:00 +24°C° 0 mm 1 m/S 724 mmHg 43%
    01:00 +21°C° 0 mm 0 m/S 724 mmHg 44%
    02:00 +21°C° 0 mm 0 m/S 724 mmHg 46%
    03:00 +20°C° 0 mm 0 m/S 724 mmHg 47%
    04:00 +20°C° 0 mm 0 m/S 724 mmHg 48%
    05:00 +23°C° 0 mm 1 m/S 724 mmHg 44%
    06:00 +25°C° 0 mm 1 m/S 725 mmHg 40%
    07:00 +26°C° 0 mm 1 m/S 725 mmHg 36%
    08:00 +27°C° 0 mm 2 m/S 725 mmHg 33%
    09:00 +29°C° 0 mm 3 m/S 724 mmHg 30%
    10:00 +30°C° 0 mm 3 m/S 724 mmHg 27%
    11:00 +32°C° 0 mm 4 m/S 724 mmHg 26%
    12:00 +32°C° 0 mm 4 m/S 724 mmHg 24%
    13:00 +33°C° 0 mm 4 m/S 723 mmHg 23%
    14:00 +32°C° 0 mm 4 m/S 723 mmHg 24%
    15:00 +32°C° 0 mm 4 m/S 723 mmHg 24%
    16:00 +30°C° 0 mm 4 m/S 723 mmHg 25%
    17:00 +29°C° 0 mm 3 m/S 723 mmHg 28%
    18:00 +27°C° 0 mm 2 m/S 724 mmHg 31%
    19:00 +26°C° 0 mm 2 m/S 724 mmHg 35%
    20:00 +25°C° 0 mm 1 m/S 724 mmHg 36%
    21:00 +25°C° 0 mm 1 m/S 724 mmHg 38%
    22:00 +25°C° 0 mm 1 m/S 724 mmHg 40%
    23:00 +24°C° 0 mm 1 m/S 724 mmHg 41%
    Mehr zeigen